                ,  0.690,  0.890,  1.090,  1.290,  1.490,  1.690,  1.890,  2.090,  2.290,  2.490,  2.690,  2.890,  3.090,  3.290,  3.490,  3.690,  3.890,  4.090,  4.290,  4.490,  4.690,  4.890,  5.090,  5.290,  5.490,  5.690,  5.890,  6.090,  6.290,  6.490,  6.690,  6.890,  7.090,  7.290,  7.490,  7.690,  7.890,  8.090,  8.290,  8.490,  8.690,  8.890,  9.090,  9.290,  9.490,  9.690,  9.890
1999/12/05 00:00,  999.0,  999.0,  999.0,  999.0,  999.0,  999.0,  999.0,  999.0,  999.0,  999.0,  999.0,  999.0,  999.0,  999.0,  999.0,  999.0,  999.0,  999.0,  999.0,  999.0,  999.0,  999.0,  999.0,  999.0,  999.0,  999.0,  999.0,  999.0,  999.0,  999.0,  999.0,  999.0,  999.0,  999.0,  999.0,  999.0,  999.0,  999.0,  999.0,  999.0,  999.0,  999.0,  999.0,  999.0,  999.0,  999.0,  999.0
1999/12/05 00:10,  999.0,  999.0,   -0.3,  999.0,  999.0,   -0.1,   -0.0,   -0.1,   -0.0,    0.2,    0.2,    0.1,   -0.0,   -0.1,  999.0,  999.0,  999.0,    0.0,   -0.0,  999.0,   -0.1,    0.0,   -0.1,   -0.7,   -0.6,   -0.7,   -0.7,   -0.6,   -0.5,   -0.4,   -0.4,   -0.5,   -0.5,   -0.3,   -0.5,   -0.3,   -0.5,   -0.3,   -0.4,  999.0,  999.0,  999.0,  999.0,  999.0,  999.0,  999.0,  999.0
1999/12/05 00:20,  999.0,   -0.3,   -0.2,  999.0,   -0.0,  999.0,   -0.0,    0.0,    0.1,    0.1,    0.1,    0.2,    0.0,  999.0,  999.0,  999.0,  999.0,  999.0,  999.0,  999.0,  999.0,   -0.1,   -0.3,   -0.6,   -0.6,   -0.6,   -0.6,   -0.5,   -0.4,   -0.4,   -0.5,   -0.6,   -0.5,   -0.5,   -0.5,   -0.4,   -0.4,   -0.4,   -0.4,   -0.7,  999.0,  999.0,  999.0,  999.0,  999.0,  999.0,  999.0
1999/12/05 00:30,  999.0,   -0.2,   -0.2,   -0.1,   -0.0,    0.1,    0.1,    0.0,    0.0,    0.1,    0.1,    0.1,    0.0,  999.0,  999.0,  999.0,   -0.3,  999.0,  999.0,  999.0,   -0.2,   -0.6,   -0.7,   -0.9,   -0.9,   -0.8,   -0.7,   -0.7,   -0.7,   -0.7,   -0.6,   -0.5,   -0.4,   -0.4,   -0.2,   -0.3,  999.0,  999.0,  999.0,   -0.4,  999.0,  999.0,  999.0,  999.0,  999.0,  999.0,  999.0
1999/12/05 00:40,  999.0,   -0.3,  999.0,   -0.4,   -0.1,   -0.2,   -0.1,   -0.1,  999.0,   -0.1,   -0.0,    0.0,   -0.0,  999.0,  999.0,  999.0,  999.0,   -0.1,    0.1,   -0.3,   -0.5,   -0.8,   -0.8,   -0.8,   -0.7,   -0.7,   -0.7,   -0.7,   -0.6,   -0.5,   -0.4,   -0.4,   -0.3,   -0.1,   -0.3,   -0.3,   -0.3,   -0.2,   -0.2,   -0.1,   -0.1,   -0.4,  999.0,  999.0,  999.0,  999.0,  999.0
1999/12/05 00:50,   -0.2,   -0.2,  999.0,  999.0,   -0.2,   -0.1,   -0.1,   -0.0,   -0.0,    0.0,    0.0,    0.0,    0.0,  999.0,  999.0,  999.0,    0.1,  999.0,    0.5,    0.2,   -0.1,   -0.3,   -0.9,   -1.0,   -0.8,   -0.8,   -0.7,   -0.7,   -0.5,   -0.5,   -0.5,   -0.4,   -0.4,   -0.3,   -0.3,   -0.3,   -0.5,   -0.3,   -0.6,   -0.3,  999.0,   -0.3,  999.0,  999.0,  999.0,  999.0,  999.0
1999/12/05 01:00,  999.0,   -0.4,  999.0,  999.0,   -0.2,   -0.2,   -0.0,   -0.1,  999.0,    0.1,   -0.0,    0.0,    0.0,    0.0,   -0.3,   -0.2,   -0.1,   -0.4,   -0.9,   -1.4,   -1.3,   -1.0,   -0.8,   -0.8,   -0.7,   -0.6,   -0.6,   -0.5,   -0.5,   -0.5,   -0.4,   -0.3,   -0.2,   -0.1,   -0.1,   -0.3,  999.0,  999.0,  999.0,  999.0,  999.0,  999.0,  999.0,  999.0,  999.0,  999.0,  999.0
1999/12/05 01:10,   -0.3,   -0.4,   -0.5,   -0.3,   -0.3,   -0.4,   -0.3,   -0.2,   -0.4,  999.0,   -0.0,    0.0,    0.0,  999.0,    0.2,    0.2,    0.2,   -0.2,    0.3,    0.0,    0.1,   -0.7,   -0.8,   -0.7,   -0.5,   -0.4,   -0.4,   -0.3,   -0.3,   -0.3,   -0.3,   -0.3,   -0.2,   -0.3,   -0.2,   -0.3,   -0.3,   -0.3,   -0.3,   -0.1,   -0.1,  999.0,  999.0,  999.0,  999.0,  999.0,  999.0
1999/12/05 01:20,  999.0,   -0.4,   -0.6,  999.0,   -0.3,   -0.4,   -0.2,   -0.1,    0.3,    0.2,  999.0,    0.1,    0.0,  999.0,  999.0,  999.0,  999.0,  999.0,    0.1,    0.0,   -0.2,   -0.3,   -0.8,   -0.7,   -0.6,   -0.5,   -0.5,   -0.4,   -0.3,   -0.3,   -0.3,   -0.3,   -0.2,   -0.2,   -0.2,   -0.1,   -0.2,   -0.2,   -0.2,    0.1,  999.0,  999.0,  999.0,  999.0,  999.0,  999.0,  999.0
1999/12/05 01:30,   -0.2,   -0.5,   -0.6,   -0.5,   -0.4,   -0.4,   -0.2,   -0.2,  999.0,    0.1,    0.0,  999.0,  999.0,  999.0,  999.0,    0.0,    0.3,    0.0,    0.3,    0.1,    0.1,    0.0,   -0.5,   -0.7,   -0.5,   -0.5,   -0.5,   -0.5,   -0.6,   -0.4,   -0.3,   -0.3,   -0.3,   -0.3,   -0.2,   -0.2,   -0.2,  999.0,   -0.2,   -0.4,  999.0,   -0.1,  999.0,  999.0,  999.0,  999.0,  999.0
1999/12/05 01:40,  999.0,   -0.5,   -0.5,   -0.5,   -0.5,   -0.3,   -0.2,   -0.3,  999.0,    0.1,    0.1,    0.0,    0.1,    0.3,  999.0,    0.3,   -0.1,    0.1,    0.3,    0.2,    0.4,    0.2,   -0.3,   -0.5,   -0.5,   -0.5,   -0.5,   -0.4,   -0.4,   -0.5,   -0.4,   -0.4,   -0.2,   -0.2,   -0.0,   -0.1,  999.0,  999.0,  999.0,  999.0,  999.0,  999.0,  999.0,  999.0,  999.0,  999.0,  999.0
1999/12/05 01:50,  999.0,  999.0,   -0.5,   -0.4,   -0.4,   -0.3,   -0.1,   -0.3,    0.1,    0.1,    0.1,    0.0,    0.0,    0.1,  999.0,    0.4,   -0.1,    0.2,    0.2,   -0.1,   -0.2,   -0.2,   -0.6,   -0.6,   -0.5,   -0.5,   -0.5,   -0.5,   -0.4,   -0.3,   -0.1,   -0.1,    0.0,    0.0,  999.0,  999.0,  999.0,  999.0,  999.0,  999.0,  999.0,  999.0,  999.0,  999.0,  999.0,  999.0,  999.0
1999/12/05 02:00,  999.0,  999.0,   -0.6,   -0.5,   -0.4,   -0.5,   -0.2,   -0.2,    0.0,    0.1,    0.0,   -0.0,  999.0,   -0.0,  999.0,    0.1,    0.2,    0.2,    0.0,   -0.1,   -0.6,   -0.6,   -0.6,   -0.6,   -0.6,   -0.6,   -0.6,   -0.6,   -0.6,   -0.5,   -0.4,   -0.3,   -0.3,   -0.0,   -0.0,  999.0,  999.0,  999.0,  999.0,  999.0,  999.0,  999.0,  999.0,  999.0,  999.0,  999.0,  999.0
1999/12/05 02:10,   -0.2,   -0.6,   -0.7,   -0.6,   -0.6,   -0.6,  999.0,   -0.2,   -0.1,  999.0,    0.0,    0.0,    0.0,    0.1,    0.1,    0.3,    0.1,    0.4,    0.4,    0.1,   -0.2,   -0.9,   -0.4,   -0.4,   -0.5,   -0.4,   -0.5,   -0.6,   -0.5,   -0.4,   -0.2,   -0.3,   -0.4,   -0.3,  999.0,  999.0,  999.0,  999.0,  999.0,  999.0,  999.0,  999.0,  999.0,  999.0,  999.0,  999.0,  999.0
1999/12/05 02:20,   -0.2,   -0.6,   -0.6,   -0.6,   -0.5,   -0.3,   -0.1,    0.0,    0.0,    0.0,    0.1,    0.1,    0.1,    0.2,    0.2,  999.0,   -0.0,    0.1,    0.2,    0.3,    0.1,   -0.2,   -0.7,   -0.8,   -0.7,   -0.7,   -0.6,   -0.6,   -0.6,   -0.5,   -0.4,   -0.3,   -0.4,   -0.4,   -0.4,   -0.2,  999.0,  999.0,  999.0,  999.0,  999.0,  999.0,  999.0,  999.0,  999.0,  999.0,  999.0
1999/12/05 02:30,   -0.2,   -0.4,   -0.6,   -0.5,   -0.5,   -0.4,   -0.3,   -0.1,   -0.0,    0.0,    0.1,    0.0,   -0.0,    0.1,    0.1,   -0.0,    0.2,   -0.0,   -0.5,   -0.4,   -1.1,   -0.9,   -0.8,   -0.7,   -0.6,   -0.7,   -0.7,   -0.7,   -0.7,   -0.6,   -0.5,   -0.5,   -0.4,   -0.3,  999.0,  999.0,   -0.3,   -0.3,   -0.1,  999.0,  999.0,  999.0,  999.0,  999.0,  999.0,  999.0,  999.0
1999/12/05 02:40,   -0.5,   -0.6,   -0.6,   -0.7,   -0.6,   -0.5,   -0.2,   -0.2,    0.1,    0.1,    0.1,    0.0,    0.1,    0.3,    0.2,    0.2,    0.2,    0.1,   -0.4,   -1.1,   -1.0,   -1.0,   -0.9,   -0.8,   -0.7,   -0.7,   -0.6,   -0.7,   -0.7,   -0.6,   -0.5,   -0.4,   -0.3,   -0.3,   -0.3,   -0.3,   -0.3,   -0.3,   -0.2,   -0.2,   -0.1,   -0.0,    0.0,   -0.1,  999.0,  999.0,  999.0
1999/12/05 02:50,   -0.4,   -0.5,   -0.5,   -0.6,   -0.5,   -0.6,   -0.6,   -0.4,   -0.6,  999.0,   -0.1,   -0.0,    0.0,    0.2,    0.4,    0.3,    0.2,   -0.1,   -0.6,   -0.8,   -0.8,   -0.9,   -1.0,   -0.9,   -0.8,   -0.8,   -0.7,   -0.7,   -0.5,   -0.4,   -0.4,   -0.3,   -0.2,   -0.1,   -0.1,   -0.1,   -0.2,   -0.1,   -0.1,    0.0,   -0.0,    0.0,    0.1,  999.0,  999.0,  999.0,  999.0
1999/12/05 03:00,   -0.2,  999.0,   -0.2,   -0.0,   -0.2,   -0.2,   -0.3,   -0.3,   -0.2,   -0.2,   -0.0,    0.0,    0.1,    0.1,    0.1,    0.2,    0.1,   -0.6,   -1.0,   -1.0,   -0.9,   -0.7,   -0.7,   -0.6,   -0.5,   -0.5,   -0.5,   -0.5,   -0.5,   -0.4,   -0.4,   -0.3,   -0.2,   -0.1,   -0.0,   -0.2,    0.1,   -0.3,   -0.4,   -0.1,  999.0,    0.3,  999.0,  999.0,    0.1,  999.0,  999.0
1999/12/05 03:10,   -0.2,   -0.2,   -0.3,   -0.5,   -0.5,   -0.4,   -0.3,   -0.3,   -0.2,   -0.4,    0.0,    0.0,    0.1,    0.2,    0.2,   -0.1,   -0.7,   -1.5,   -1.2,   -0.9,   -0.9,   -0.8,   -0.7,   -0.6,   -0.6,   -0.5,   -0.5,   -0.5,   -0.4,   -0.4,   -0.4,   -0.4,   -0.4,   -0.2,   -0.3,   -0.2,   -0.2,   -0.2,   -0.3,   -0.2,   -0.1,   -0.1,   -0.2,   -0.1,   -0.1,    0.0,  999.0
1999/12/05 03:20,  999.0,  999.0,  999.0,  999.0,   -0.2,   -0.1,   -0.1,   -0.0,    0.0,    0.0,    0.3,    0.0,    0.3,    0.4,    0.3,   -0.3,   -1.4,   -1.0,   -1.0,   -1.0,   -0.8,   -0.7,   -0.6,   -0.6,   -0.5,   -0.6,   -0.6,   -0.6,   -0.6,   -0.5,   -0.5,   -0.5,   -0.6,   -0.4,   -0.3,   -0.3,   -0.3,   -0.3,   -0.2,   -0.2,   -0.2,   -0.1,   -0.2,   -0.2,   -0.0,   -0.3,  999.0
1999/12/05 03:30,   -0.1,  999.0,  999.0,  999.0,  999.0,   -0.4,   -0.2,   -0.2,   -0.2,    0.0,    0.1,    0.4,    0.3,    0.4,    0.2,    0.4,   -0.5,   -0.8,   -0.8,   -0.7,   -0.7,   -0.7,   -0.7,   -0.6,   -0.6,   -0.6,   -0.6,   -0.6,   -0.6,   -0.5,   -0.5,   -0.4,   -0.4,   -0.2,   -0.3,   -0.2,   -0.2,   -0.2,   -0.4,   -0.2,   -0.1,    0.0,   -0.1,    0.2,  999.0,  999.0,  999.0
1999/12/05 03:40,   -0.1,  999.0,  999.0,   -0.3,   -0.3,   -0.2,   -0.1,    0.1,    0.2,    0.3,    0.2,   -0.0,    0.2,    0.5,    0.7,    0.4,   -0.5,   -1.1,   -1.0,   -1.0,   -0.9,   -0.8,   -0.7,   -0.7,   -0.7,   -0.6,   -0.6,   -0.7,   -0.7,   -0.6,   -0.5,   -0.5,   -0.6,   -0.4,   -0.4,   -0.3,   -0.4,   -0.2,   -0.4,   -0.4,   -0.2,  999.0,   -0.2,  999.0,  999.0,  999.0,  999.0
1999/12/05 03:50,   -0.0,   -0.1,   -0.2,   -0.2,    0.0,    0.1,    0.1,    0.1,    0.3,    0.1,    0.0,    0.2,   -0.2,   -0.6,   -0.5,   -1.2,   -1.1,   -1.2,   -1.0,   -0.8,   -0.7,   -0.6,   -0.7,   -0.6,   -0.6,   -0.5,   -0.5,   -0.6,   -0.6,   -0.6,   -0.4,   -0.4,   -0.4,   -0.3,   -0.3,   -0.2,   -0.3,   -0.3,   -0.3,   -0.3,   -0.3,   -0.4,   -0.2,   -0.2,   -0.5,  999.0,  999.0
1999/12/05 04:00,   -0.1,   -0.2,   -0.2,   -0.1,   -0.2,   -0.0,    0.1,    0.1,    0.3,   -0.0,    0.2,    0.2,   -0.4,   -1.4,   -1.6,   -1.5,   -1.2,   -1.1,   -0.9,   -0.8,   -0.8,   -0.7,   -0.7,   -0.7,   -0.6,   -0.5,   -0.5,   -0.6,   -0.6,   -0.6,   -0.6,   -0.6,   -0.6,   -0.5,   -0.5,   -0.4,   -0.5,   -0.6,   -0.6,   -0.6,   -0.6,   -0.5,   -0.3,   -0.3,  999.0,  999.0,  999.0
1999/12/05 04:10,   -0.2,   -0.5,  999.0,   -0.3,   -0.2,   -0.2,   -0.0,   -0.0,    0.1,    0.1,    0.1,    0.3,    0.5,  999.0,   -1.8,   -1.1,   -1.1,   -1.0,   -0.8,   -0.8,   -0.7,   -0.7,   -0.6,   -0.6,   -0.6,   -0.6,   -0.6,   -0.7,   -0.6,   -0.6,   -0.5,   -0.5,   -0.5,   -0.5,   -0.5,   -0.4,   -0.5,   -0.3,   -0.6,   -0.5,   -0.4,   -0.4,   -0.3,   -0.3,   -0.4,  999.0,  999.0
1999/12/05 04:20,   -0.3,  999.0,   -0.4,   -0.2,   -0.2,   -0.3,   -0.2,   -0.3,   -0.5,   -0.3,   -0.0,    0.0,  999.0,  999.0,   -1.9,   -1.8,   -1.4,   -1.0,   -0.9,   -0.8,   -0.7,   -0.7,   -0.6,   -0.6,   -0.5,   -0.5,   -0.5,   -0.6,   -0.5,   -0.5,   -0.5,   -0.5,   -0.6,   -0.6,  999.0,   -0.4,   -0.4,   -0.5,   -0.4,   -0.3,   -0.4,   -0.4,   -0.3,   -0.2,   -0.1,  999.0,  999.0
1999/12/05 04:30,  999.0,  999.0,  999.0,   -0.2,   -0.2,   -0.1,   -0.3,   -0.3,  999.0,   -0.0,  999.0,    0.2,    0.0,    0.1,    0.1,   -0.6,   -0.9,   -1.1,   -0.9,   -0.8,   -0.7,   -0.7,   -0.7,   -0.7,   -0.7,   -0.7,   -0.6,   -0.6,   -0.6,   -0.6,   -0.6,   -0.6,   -0.5,   -0.4,   -0.3,   -0.4,   -0.5,   -0.5,   -0.6,   -0.4,   -0.4,   -0.4,   -0.3,   -0.4,   -0.3,  999.0,  999.0
1999/12/05 04:40,   -0.3,  999.0,  999.0,  999.0,  999.0,   -0.6,   -0.5,   -0.3,   -0.2,   -0.1,   -0.2,   -0.1,   -0.1,    0.2,   -0.1,   -1.2,   -1.4,   -1.1,   -0.9,   -0.8,   -0.8,   -0.8,   -0.8,   -0.8,   -0.8,   -0.8,   -0.7,   -0.7,   -0.6,   -0.6,   -0.6,   -0.5,   -0.5,   -0.4,   -0.5,   -0.4,   -0.3,   -0.4,   -0.3,   -0.3,   -0.3,   -0.4,   -0.3,  999.0,   -0.3,  999.0,  999.0
1999/12/05 04:50,   -0.3,   -0.3,   -0.7,   -0.9,   -0.9,   -1.0,   -0.8,   -0.2,   -0.3,   -0.4,    0.1,   -0.1,    0.0,   -0.1,   -0.2,   -1.0,   -1.2,   -1.1,   -1.0,   -0.9,   -0.9,   -0.9,   -0.8,   -0.8,   -0.8,   -0.8,   -0.8,   -0.8,   -0.7,   -0.7,   -0.7,   -0.6,   -0.6,   -0.5,   -0.4,   -0.5,   -0.4,   -0.4,   -0.4,   -0.2,   -0.3,   -0.3,   -0.2,   -0.1,   -0.1,  999.0,  999.0
1999/12/05 05:00,   -0.6,   -0.3,   -1.0,   -1.2,   -1.1,   -1.1,   -0.8,   -0.2,   -0.4,   -0.4,    0.0,   -0.1,    0.2,   -0.1,   -1.0,   -1.7,   -1.2,   -1.0,   -0.9,   -0.8,   -0.8,   -0.8,   -0.7,   -0.7,   -0.8,   -0.7,   -0.8,   -0.8,   -0.8,   -0.7,   -0.7,   -0.6,   -0.5,   -0.5,   -0.5,   -0.4,   -0.3,   -0.4,   -0.3,   -0.4,   -0.4,   -0.1,   -0.1,   -0.2,  999.0,  999.0,  999.0
1999/12/05 05:10,   -1.2,   -0.8,   -1.2,   -1.2,   -1.1,   -1.1,   -0.7,   -0.2,   -0.4,   -0.5,  999.0,   -0.2,   -0.1,    0.0,    0.1,   -0.9,   -1.3,   -1.1,   -1.1,   -1.1,   -1.0,   -1.0,   -1.0,   -1.0,   -1.0,   -0.9,   -0.9,   -0.8,   -0.8,   -0.8,   -0.7,   -0.7,   -0.6,   -0.6,   -0.5,   -0.4,   -0.4,   -0.4,   -0.4,   -0.4,   -0.3,   -0.2,   -0.2,   -0.3,   -0.1,  999.0,  999.0
1999/12/05 05:20,   -1.1,   -1.1,   -1.1,   -1.4,   -1.3,   -1.3,   -0.9,   -0.6,   -0.5,   -0.5,  999.0,   -0.2,   -0.2,   -0.2,   -0.5,   -1.1,   -1.0,   -0.9,   -1.0,   -0.9,   -0.9,   -0.9,   -0.9,   -0.9,   -1.0,   -0.9,   -0.9,   -0.9,   -0.9,   -0.8,   -0.8,   -0.8,   -0.7,   -0.6,   -0.5,   -0.6,   -0.5,   -0.4,   -0.4,   -0.4,   -0.4,   -0.2,   -0.3,   -0.2,   -0.3,  999.0,  999.0
1999/12/05 05:30,   -1.6,   -1.5,   -1.2,   -1.4,   -1.6,   -1.5,   -1.1,   -0.8,   -0.5,   -0.6,   -0.0,   -0.1,   -0.2,   -0.4,   -0.9,   -1.3,   -1.0,   -1.0,   -1.0,   -1.1,   -1.0,   -0.9,   -1.0,   -0.9,   -0.9,   -0.9,   -0.9,   -0.8,   -0.9,   -0.9,   -0.9,   -0.9,   -0.8,   -0.8,   -0.8,   -0.7,   -0.8,   -0.6,   -0.5,   -0.5,   -0.5,   -0.4,   -0.3,   -0.2,   -0.4,   -0.4,  999.0
1999/12/05 05:40,   -0.8,   -0.7,   -0.4,   -1.4,   -1.3,   -0.9,   -0.7,   -0.6,   -0.6,   -0.2,   -0.1,   -0.1,   -0.0,  999.0,   -0.9,   -1.0,   -1.0,   -1.0,   -0.9,   -0.9,   -0.9,   -0.9,   -0.9,   -0.9,   -0.9,   -0.9,   -0.9,   -0.9,   -0.9,   -0.9,   -0.9,   -0.8,   -0.8,   -0.8,   -0.7,   -0.8,   -0.7,   -0.8,   -0.7,   -0.7,   -0.6,   -0.7,   -0.6,   -0.4,   -0.3,  999.0,  999.0
1999/12/05 05:50,   -0.8,   -0.5,   -0.3,   -0.2,   -0.4,   -0.3,   -0.3,   -0.3,   -0.2,   -0.3,    0.0,   -0.0,   -0.6,   -0.8,   -1.0,   -1.0,   -0.9,   -0.8,   -0.9,   -0.9,   -0.8,   -0.8,   -0.8,   -0.7,   -0.7,   -0.7,   -0.7,   -0.7,   -0.7,   -0.7,   -0.6,   -0.7,   -0.7,   -0.6,   -0.6,   -0.6,   -0.7,   -0.6,   -0.7,   -0.6,   -0.6,   -0.5,   -0.5,  999.0,  999.0,  999.0,  999.0
1999/12/05 06:00,   -0.3,   -0.6,   -0.8,   -0.6,   -0.5,   -0.3,   -0.3,   -0.1,   -0.1,    0.0,    0.0,    0.0,  999.0,    0.4,   -0.9,   -1.0,   -1.0,   -0.9,   -0.9,   -0.9,   -0.9,   -0.9,   -0.8,   -0.9,   -0.8,   -0.8,   -0.8,   -0.8,   -0.8,   -0.7,   -0.7,   -0.7,   -0.6,   -0.6,   -0.5,   -0.6,   -0.6,   -0.6,   -0.5,   -0.5,   -0.5,   -0.5,   -0.3,   -0.2,   -0.3,   -0.2,  999.0
1999/12/05 06:10,  999.0,  999.0,   -0.8,   -0.8,   -0.5,   -0.2,   -0.2,   -0.2,  999.0,    0.0,   -0.4,  999.0,   -1.0,  999.0,   -1.2,   -1.1,   -1.1,   -1.0,   -1.0,   -1.0,   -0.9,   -0.9,   -0.9,   -0.9,   -0.9,   -0.9,   -0.9,   -0.8,   -0.8,   -0.8,   -0.8,   -0.9,   -0.8,   -0.8,   -0.9,   -0.8,   -0.7,   -0.8,   -0.8,   -0.7,   -0.7,   -0.5,   -0.4,   -0.3,   -0.2,   -0.1,   -0.1
1999/12/05 06:20,  999.0,  999.0,  999.0,   -2.5,  999.0,   -2.4,   -1.5,   -0.7,  999.0,   -1.4,   -2.3,   -2.2,   -1.9,   -1.3,   -1.1,   -1.0,   -0.8,   -0.9,   -0.9,   -0.9,   -0.9,   -0.9,   -0.9,   -0.9,   -1.0,   -1.0,   -1.0,   -1.0,   -1.0,   -1.0,   -0.9,   -0.9,   -1.0,   -0.9,   -0.8,   -0.8,   -0.9,   -0.7,   -0.7,   -0.7,   -0.6,   -0.5,   -0.6,   -0.4,   -0.3,   -0.3,  999.0
1999/12/05 06:30,   -1.7,   -2.9,   -2.1,   -1.4,   -1.5,   -1.7,   -0.9,   -0.2,   -0.2,   -1.5,   -1.8,   -1.4,   -1.2,   -1.0,   -0.8,   -0.7,   -0.7,   -0.8,   -0.9,   -0.9,   -0.9,   -0.8,   -0.8,   -0.8,   -0.8,   -0.8,   -0.8,   -0.9,   -0.9,   -0.8,   -0.8,   -0.8,   -0.8,   -0.7,   -0.7,   -0.6,   -0.6,   -0.6,   -0.6,   -0.6,   -0.7,   -0.6,   -0.5,   -0.4,   -0.3,  999.0,   -0.2
1999/12/05 06:40,  999.0,   -1.0,   -0.8,   -1.0,   -0.6,   -0.9,   -0.6,   -0.0,    0.1,  999.0,  999.0,   -1.3,   -0.9,   -0.8,   -0.7,   -0.6,   -0.6,   -0.6,   -0.6,   -0.6,   -0.7,   -0.7,   -0.7,   -0.8,   -0.8,   -0.8,   -0.7,   -0.7,   -0.7,   -0.7,   -0.8,   -0.7,   -0.6,   -0.5,   -0.4,   -0.6,   -0.5,   -0.6,   -0.6,   -0.8,   -0.6,   -0.6,   -0.6,   -0.4,   -0.4,  999.0,  999.0
1999/12/05 06:50,   -0.2,   -0.4,   -0.4,   -0.2,    0.0,   -0.2,    0.1,    0.1,    0.1,   -0.2,  999.0,   -1.0,   -1.0,   -0.7,   -0.7,   -0.6,   -0.6,   -0.6,   -0.7,   -0.8,   -0.8,   -0.7,   -0.7,   -0.6,   -0.6,   -0.7,   -0.7,   -0.7,   -0.7,   -0.7,   -0.7,   -0.7,   -0.7,   -0.7,   -0.7,   -0.7,   -0.7,   -0.7,   -0.7,   -0.7,   -0.7,   -0.6,   -0.5,   -0.4,   -0.6,   -0.6,  999.0
1999/12/05 07:00,   -2.6,   -2.1,  999.0,   -0.5,   -0.6,   -0.5,   -0.4,   -0.2,   -0.4,   -1.3,   -1.3,   -1.1,   -1.0,   -0.9,   -0.9,   -0.8,   -0.8,   -0.8,   -0.7,   -0.7,   -0.7,   -0.7,   -0.7,   -0.6,   -0.6,   -0.7,   -0.6,   -0.5,   -0.6,   -0.7,   -0.8,   -0.7,   -0.7,   -0.7,   -0.6,   -0.5,   -0.5,   -0.6,   -0.6,   -0.6,   -0.6,   -0.6,   -0.5,   -0.5,   -0.3,   -0.3,  999.0
1999/12/05 07:10,   -3.3,   -3.2,   -1.7,   -1.6,   -1.7,   -1.6,   -1.0,   -0.7,   -1.2,   -1.1,   -1.1,   -1.0,   -1.0,   -0.8,   -0.8,   -0.7,   -0.7,   -0.6,   -0.5,   -0.5,   -0.4,   -0.4,   -0.5,  999.0,  999.0,    0.1,    0.1,    0.2,    0.2,   -0.2,   -0.6,   -0.6,   -0.5,   -0.6,   -0.5,   -0.4,   -0.5,   -0.4,   -0.3,   -0.3,   -0.3,   -0.2,   -0.2,   -0.1,   -0.1,    0.1,   -0.1
1999/12/05 07:20,   -5.1,   -5.4,   -5.8,   -6.5,   -5.5,  999.0,  999.0,  999.0,  999.0,   -1.3,   -1.1,   -1.0,   -0.9,   -1.0,   -0.8,   -0.9,   -0.6,   -0.6,   -0.5,   -0.4,   -0.3,   -0.3,   -0.1,  999.0,  999.0,    0.3,  999.0,  999.0,  999.0,  999.0,   -0.3,  999.0,  999.0,   -0.5,   -0.5,   -0.3,   -0.4,   -0.3,   -0.4,   -0.4,   -0.4,   -0.2,   -0.2,    0.0,   -0.3,    0.0,    0.0
1999/12/05 07:30,   -5.6,   -5.4,   -5.5,   -5.4,   -4.9,  999.0,   -1.3,  999.0,   -0.7,   -0.9,   -0.8,   -0.9,   -0.9,   -1.0,   -1.1,   -1.0,   -0.9,   -0.7,   -0.6,   -0.4,   -0.1,  999.0,    0.2,    0.1,    0.1,  999.0,  999.0,  999.0,  999.0,  999.0,  999.0,   -0.6,   -0.6,   -0.7,   -0.7,   -0.6,   -0.7,   -0.7,   -0.7,   -0.7,   -0.7,   -0.4,   -0.6,   -0.3,   -0.2,   -0.3,   -0.1
1999/12/05 07:40,   -3.7,   -3.5,   -4.0,   -3.9,   -3.8,   -2.6,  999.0,  999.0,   -0.7,   -0.9,   -1.1,   -1.0,   -1.0,   -1.1,   -1.2,   -1.2,   -1.1,   -1.1,   -1.0,   -0.6,   -0.4,   -0.3,   -0.2,   -0.0,    0.0,  999.0,  999.0,  999.0,  999.0,  999.0,  999.0,  999.0,   -0.6,   -0.6,   -0.7,   -0.5,   -0.5,   -0.6,   -0.6,   -0.6,   -0.7,   -0.6,   -0.6,   -0.4,   -0.5,   -0.1,  999.0
1999/12/05 07:50,  999.0,   -4.1,   -4.9,   -4.8,   -4.2,   -2.6,   -1.6,   -1.0,   -0.3,   -0.4,   -0.6,   -0.7,   -0.9,   -0.9,   -1.0,   -1.0,   -1.0,   -0.9,   -0.7,   -0.4,   -0.4,   -0.3,   -0.2,   -0.1,   -0.2,   -0.2,  999.0,  999.0,  999.0,  999.0,  999.0,  999.0,  999.0,  999.0,  999.0,   -0.5,  999.0,  999.0,  999.0,   -0.5,   -0.5,   -0.5,   -0.5,   -0.4,   -0.3,   -0.1,   -0.3
1999/12/05 08:00,   -0.1,  999.0,   -0.6,   -1.6,   -0.8,   -0.7,   -0.4,   -0.5,   -0.5,   -0.4,   -0.5,   -0.5,   -0.8,   -1.0,   -1.0,   -1.1,   -1.1,   -1.0,   -0.9,   -0.7,   -0.8,   -0.6,   -0.3,  999.0,  999.0,  999.0,  999.0,  999.0,  999.0,  999.0,  999.0,  999.0,  999.0,  999.0,  999.0,  999.0,  999.0,  999.0,  999.0,  999.0,   -0.6,   -0.6,   -0.5,   -0.4,   -0.4,   -0.3,  999.0
1999/12/05 08:10,   -3.8,  999.0,   -2.7,   -3.1,   -1.7,   -1.7,   -1.6,   -1.1,   -0.8,   -0.9,   -1.0,   -0.9,   -0.9,   -1.1,   -1.1,   -1.1,   -1.0,   -1.1,   -0.8,   -0.7,   -0.6,   -0.3,   -0.0,  999.0,  999.0,  999.0,  999.0,  999.0,  999.0,  999.0,  999.0,  999.0,  999.0,  999.0,  999.0,  999.0,  999.0,  999.0,   -0.2,   -0.4,   -0.7,   -0.5,   -0.4,   -0.4,   -0.5,   -0.3,   -0.3
1999/12/05 08:20,   -5.7,   -5.4,   -5.2,   -4.4,   -2.9,   -2.1,   -1.4,   -1.6,   -0.3,   -0.7,   -0.4,   -0.0,   -0.8,   -0.9,   -1.0,   -0.9,   -0.8,   -0.7,   -0.7,   -0.7,   -0.8,   -0.3,   -0.1,    0.0,  999.0,  999.0,  999.0,  999.0,  999.0,  999.0,  999.0,  999.0,  999.0,  999.0,  999.0,  999.0,  999.0,  999.0,  999.0,   -0.4,  999.0,   -0.5,   -0.4,   -0.5,   -0.4,   -0.4,  999.0
1999/12/05 08:30,   -1.8,  999.0,   -3.0,   -1.8,   -1.5,   -0.8,   -0.3,    0.0,    0.1,    0.1,    0.1,   -0.0,   -0.2,   -0.6,   -0.5,   -0.6,   -0.7,   -0.6,   -0.6,   -0.6,   -0.5,   -0.2,    0.2,    0.0,  999.0,  999.0,  999.0,  999.0,  999.0,  999.0,  999.0,  999.0,  999.0,  999.0,  999.0,  999.0,  999.0,  999.0,   -0.1,   -0.3,   -0.2,   -0.2,   -0.2,   -0.2,   -0.2,   -0.4,   -0.3
1999/12/05 08:40,   -0.5,   -1.2,   -1.0,   -0.7,   -0.8,   -0.7,   -0.3,   -0.0,    0.0,    0.1,   -0.1,   -0.5,   -0.3,    0.0,   -0.4,   -0.9,   -0.6,   -0.8,   -0.7,   -0.5,   -0.4,   -0.1,    0.3,  999.0,  999.0,  999.0,  999.0,  999.0,  999.0,  999.0,  999.0,  999.0,  999.0,  999.0,  999.0,  999.0,  999.0,  999.0,   -0.1,   -0.5,   -0.1,   -0.2,    0.1,   -0.1,   -0.1,  999.0,  999.0
1999/12/05 08:50,  999.0,   -0.8,   -0.8,   -0.6,   -0.6,   -0.4,   -0.0,    0.1,   -0.1,    0.1,   -0.4,   -0.9,   -0.5,   -0.1,   -0.5,   -0.7,   -0.7,   -0.8,   -0.9,   -0.7,   -0.5,   -0.3,   -0.1,  999.0,  999.0,  999.0,  999.0,  999.0,  999.0,  999.0,  999.0,  999.0,  999.0,  999.0,  999.0,  999.0,  999.0,  999.0,   -0.2,   -0.1,   -0.3,   -0.3,   -0.3,   -0.4,   -0.3,  999.0,  999.0
1999/12/05 09:00,   -0.1,   -0.1,    0.0,    0.1,   -0.0,    0.3,    0.2,    0.3,    0.3,    0.3,    0.3,   -0.0,   -0.1,    0.2,   -0.4,   -0.9,   -0.7,   -0.7,   -0.7,   -0.7,   -0.5,   -0.3,   -0.1,  999.0,  999.0,  999.0,  999.0,  999.0,  999.0,  999.0,  999.0,  999.0,  999.0,  999.0,  999.0,  999.0,  999.0,   -0.3,   -0.3,   -0.5,   -0.5,   -0.4,   -0.3,   -0.4,   -0.3,   -0.4,   -0.7
1999/12/05 09:10,  999.0,    0.1,    0.1,    0.0,    0.0,    0.1,    0.2,    0.3,    0.3,    0.3,    0.3,  999.0,    0.3,    0.1,    0.2,   -0.1,   -0.4,   -0.5,   -0.6,   -0.5,   -0.4,   -0.1,   -0.0,  999.0,  999.0,  999.0,  999.0,  999.0,  999.0,  999.0,  999.0,  999.0,  999.0,  999.0,  999.0,  999.0,  999.0,  999.0,  999.0,   -0.6,   -0.6,   -0.4,   -0.4,   -0.4,   -0.1,  999.0,  999.0
1999/12/05 09:20,  999.0,  999.0,  999.0,    0.0,    0.1,    0.2,    0.3,    0.3,    0.2,    0.2,    0.2,    0.2,    0.1,    0.1,    0.1,   -0.2,   -0.3,   -0.2,   -0.5,   -0.6,   -0.4,   -0.1,    0.0,  999.0,  999.0,  999.0,  999.0,  999.0,  999.0,  999.0,  999.0,  999.0,  999.0,  999.0,  999.0,  999.0,  999.0,  999.0,  999.0,   -0.7,   -0.7,   -0.5,   -0.7,   -0.6,   -0.5,  999.0,  999.0
1999/12/05 09:30,  999.0,  999.0,   -0.0,   -0.1,    0.1,    0.1,    0.2,    0.1,    0.1,   -0.1,   -0.1,   -0.0,   -0.2,   -0.3,   -0.1,   -0.7,   -0.3,   -0.5,   -0.7,   -0.7,   -0.4,   -0.2,   -0.2,  999.0,  999.0,  999.0,  999.0,  999.0,  999.0,  999.0,  999.0,  999.0,  999.0,  999.0,  999.0,  999.0,  999.0,  999.0,  999.0,  999.0,   -0.2,   -0.3,   -0.4,   -0.5,   -0.4,   -0.4,  999.0
1999/12/05 09:40,  999.0,  999.0,   -0.1,   -0.1,   -0.1,   -0.2,    0.0,    0.1,    0.0,   -0.1,   -0.1,   -0.0,   -0.2,   -0.5,   -0.6,   -0.6,   -0.6,   -0.6,   -0.5,   -0.5,   -0.1,    0.1,  999.0,  999.0,  999.0,  999.0,  999.0,  999.0,  999.0,  999.0,  999.0,  999.0,  999.0,  999.0,  999.0,  999.0,  999.0,  999.0,  999.0,   -0.4,   -0.4,   -0.5,   -0.4,   -0.5,  999.0,  999.0,  999.0
1999/12/05 09:50,   -0.1,    0.0,    0.0,   -0.2,   -0.1,   -0.1,   -0.1,   -0.0,    0.0,    0.0,    0.1,   -0.4,   -0.5,   -0.7,   -0.8,   -0.6,   -0.5,   -0.5,   -0.4,   -0.3,   -0.2,    0.1,  999.0,  999.0,  999.0,  999.0,  999.0,  999.0,  999.0,  999.0,  999.0,  999.0,  999.0,  999.0,  999.0,  999.0,  999.0,  999.0,   -0.6,   -1.0,   -0.6,   -0.6,   -1.0,  999.0,   -0.5,  999.0,  999.0
1999/12/05 10:00,   -0.0,    0.1,    0.0,   -0.0,   -0.0,   -0.1,   -0.1,   -0.0,    0.2,    0.1,    0.1,   -0.3,   -0.6,   -0.9,   -0.6,   -0.6,   -0.4,   -0.4,   -0.4,   -0.4,   -0.1,    0.2,  999.0,  999.0,  999.0,  999.0,  999.0,  999.0,  999.0,  999.0,  999.0,  999.0,  999.0,  999.0,  999.0,  999.0,  999.0,  999.0,   -0.4,   -0.5,   -0.6,   -0.7,   -0.4,   -0.1,   -0.1,  999.0,  999.0
1999/12/05 10:10,  999.0,  999.0,    0.0,   -0.1,   -0.2,   -0.1,    0.0,    0.2,    0.4,    0.2,    0.2,   -0.1,   -0.4,   -0.4,   -0.5,   -0.5,   -0.4,   -0.4,   -0.4,   -0.3,   -0.1,    0.1,  999.0,  999.0,  999.0,  999.0,  999.0,  999.0,  999.0,  999.0,  999.0,  999.0,  999.0,  999.0,  999.0,  999.0,  999.0,  999.0,  999.0,  999.0,   -0.4,   -0.1,   -0.2,   -0.1,   -0.2,  999.0,   -0.1
1999/12/05 10:20,    0.1,  999.0,    0.3,    0.1,    0.1,    0.1,    0.3,    0.4,    0.4,    0.1,    0.0,   -0.3,   -0.4,   -0.2,   -0.5,   -0.6,   -0.6,   -0.4,   -0.3,   -0.2,    0.2,    0.3,  999.0,  999.0,  999.0,  999.0,  999.0,  999.0,  999.0,  999.0,  999.0,  999.0,  999.0,  999.0,  999.0,  999.0,  999.0,  999.0,  999.0,  999.0,  999.0,   -0.4,   -0.5,   -0.3,   -0.2,   -0.2,   -0.2
1999/12/05 10:30,    0.2,    0.2,    0.3,   -0.0,   -0.1,    0.1,    0.1,    0.0,    0.1,    0.0,    0.0,   -0.0,    0.1,   -0.1,   -0.1,   -0.5,   -0.5,   -0.5,   -0.3,   -0.1,    0.3,    0.1,  999.0,  999.0,  999.0,  999.0,  999.0,  999.0,  999.0,  999.0,  999.0,  999.0,  999.0,  999.0,  999.0,  999.0,  999.0,  999.0,  999.0,  999.0,  999.0,   -0.6,   -0.6,   -0.2,   -0.2,  999.0,  999.0
1999/12/05 10:40,   -0.0,  999.0,   -0.0,    0.0,    0.0,    0.1,   -0.1,   -0.1,   -0.0,    0.0,   -0.0,    0.1,   -0.3,   -0.2,   -0.1,   -0.6,   -0.7,   -0.6,   -0.4,   -0.2,    0.2,    0.4,  999.0,  999.0,  999.0,  999.0,  999.0,  999.0,  999.0,  999.0,  999.0,  999.0,  999.0,  999.0,  999.0,  999.0,  999.0,  999.0,  999.0,  999.0,  999.0,   -0.4,   -0.3,   -0.3,    0.1,  999.0,  999.0
1999/12/05 10:50,   -0.2,   -0.1,   -0.3,   -0.0,   -0.0,    0.1,    0.2,    0.2,    0.2,    0.2,    0.2,    0.1,   -0.4,    0.1,   -0.4,   -0.8,   -0.7,   -0.7,   -0.6,   -0.4,    0.0,    0.1,  999.0,  999.0,  999.0,  999.0,  999.0,  999.0,  999.0,  999.0,  999.0,  999.0,  999.0,  999.0,  999.0,  999.0,  999.0,  999.0,  999.0,  999.0,  999.0,  999.0,   -0.4,   -0.1,   -0.1,  999.0,  999.0
1999/12/05 11:00,   -0.0,    0.0,   -0.1,    0.1,    0.2,    0.2,    0.3,    0.3,    0.3,    0.4,    0.3,    0.2,    0.3,   -0.0,   -0.8,   -0.8,   -0.6,   -0.5,   -0.3,   -0.1,  999.0,    0.4,  999.0,  999.0,  999.0,  999.0,  999.0,  999.0,  999.0,  999.0,  999.0,  999.0,  999.0,  999.0,  999.0,  999.0,  999.0,  999.0,  999.0,  999.0,  999.0,  999.0,  999.0,  999.0,  999.0,  999.0,  999.0
1999/12/05 11:10,  999.0,    0.4,    0.4,    0.5,    0.4,    0.3,    0.5,    0.4,    0.4,    0.5,    0.2,    0.1,   -0.1,   -0.4,   -0.6,   -0.6,   -0.5,   -0.4,   -0.4,   -0.2,    0.0,    0.3,  999.0,  999.0,  999.0,  999.0,  999.0,  999.0,  999.0,  999.0,  999.0,  999.0,  999.0,  999.0,  999.0,  999.0,  999.0,  999.0,  999.0,  999.0,  999.0,  999.0,  999.0,  999.0,  999.0,  999.0,  999.0
1999/12/05 11:20,    0.2,    0.4,    0.3,    0.4,    0.5,    0.6,    0.7,    0.7,    0.5,    0.4,    0.3,    0.2,   -0.2,   -0.4,   -0.8,   -0.8,   -0.6,   -0.5,   -0.3,   -0.2,    0.2,    0.4,    0.4,  999.0,  999.0,  999.0,  999.0,  999.0,  999.0,  999.0,  999.0,  999.0,  999.0,  999.0,  999.0,  999.0,  999.0,  999.0,  999.0,  999.0,  999.0,  999.0,  999.0,  999.0,  999.0,  999.0,  999.0
1999/12/05 11:30,    0.1,  999.0,  999.0,  999.0,    0.0,    0.1,    0.1,    0.1,    0.1,    0.0,    0.1,   -0.2,   -0.6,   -0.8,   -1.0,   -0.9,   -0.8,   -0.6,   -0.5,   -0.3,   -0.4,    0.0,  999.0,  999.0,  999.0,  999.0,  999.0,  999.0,  999.0,  999.0,  999.0,  999.0,  999.0,  999.0,  999.0,  999.0,  999.0,  999.0,  999.0,  999.0,  999.0,  999.0,  999.0,  999.0,  999.0,  999.0,  999.0
1999/12/05 11:40,   -0.1,  999.0,   -0.2,   -0.2,   -0.1,   -0.2,   -0.2,   -0.1,   -0.1,   -0.1,   -0.8,   -0.9,   -1.1,   -1.2,   -1.2,   -1.0,   -0.9,   -0.7,   -0.5,   -0.5,   -0.1,    0.1,  999.0,  999.0,  999.0,  999.0,  999.0,  999.0,  999.0,  999.0,  999.0,  999.0,  999.0,  999.0,  999.0,  999.0,  999.0,  999.0,  999.0,  999.0,  999.0,  999.0,  999.0,  999.0,  999.0,  999.0,  999.0
1999/12/05 11:50,   -0.2,   -0.1,   -0.1,   -0.2,   -0.2,   -0.3,   -0.3,   -0.3,   -0.2,   -0.3,   -0.4,   -0.7,   -0.9,   -0.9,   -0.9,   -0.9,   -0.9,   -0.7,   -0.6,   -0.4,    0.0,   -0.1,  999.0,  999.0,  999.0,  999.0,  999.0,  999.0,  999.0,  999.0,  999.0,  999.0,  999.0,  999.0,  999.0,  999.0,  999.0,  999.0,  999.0,  999.0,  999.0,  999.0,  999.0,  999.0,  999.0,  999.0,  999.0
1999/12/05 12:00,  999.0,   -0.3,   -0.4,   -0.3,   -0.4,   -0.3,   -0.3,   -0.3,   -0.2,   -0.2,   -0.1,   -0.7,   -0.7,   -0.7,   -0.7,   -0.7,   -0.6,   -0.5,   -0.5,   -0.3,   -0.0,    0.2,  999.0,  999.0,  999.0,  999.0,  999.0,  999.0,  999.0,  999.0,  999.0,  999.0,  999.0,  999.0,  999.0,  999.0,  999.0,  999.0,  999.0,  999.0,  999.0,  999.0,  999.0,  999.0,  999.0,  999.0,  999.0
1999/12/05 12:10,   -0.4,   -0.3,   -0.1,  999.0,   -0.5,   -0.6,   -0.3,   -0.2,   -0.2,   -0.1,   -0.3,   -0.7,   -0.8,   -0.8,   -0.8,   -0.7,   -0.7,   -0.7,   -0.6,   -0.2,  999.0,    0.2,  999.0,  999.0,  999.0,  999.0,  999.0,  999.0,  999.0,  999.0,  999.0,  999.0,  999.0,  999.0,  999.0,  999.0,  999.0,  999.0,  999.0,  999.0,  999.0,  999.0,  999.0,  999.0,  999.0,  999.0,  999.0
1999/12/05 12:20,   -0.4,   -0.6,   -0.2,   -0.1,  999.0,   -0.4,   -0.3,   -0.2,   -0.1,   -0.2,   -0.7,   -0.9,   -0.8,   -0.7,   -0.7,   -0.6,   -0.5,   -0.4,   -0.2,  999.0,    0.3,    0.3,  999.0,  999.0,  999.0,  999.0,  999.0,  999.0,  999.0,  999.0,  999.0,  999.0,  999.0,  999.0,  999.0,  999.0,  999.0,  999.0,  999.0,  999.0,  999.0,  999.0,  999.0,  999.0,  999.0,  999.0,  999.0
1999/12/05 12:30,   -0.2,   -0.3,   -0.4,   -0.2,   -0.4,   -0.3,   -0.3,   -0.2,   -0.1,   -0.1,   -0.7,   -0.7,   -0.7,   -0.7,   -0.7,   -0.6,   -0.4,   -0.5,   -0.3,   -0.1,    0.2,    0.4,  999.0,  999.0,  999.0,  999.0,  999.0,  999.0,  999.0,  999.0,  999.0,  999.0,  999.0,  999.0,  999.0,  999.0,  999.0,  999.0,  999.0,  999.0,  999.0,  999.0,  999.0,  999.0,  999.0,  999.0,  999.0
1999/12/05 12:40,   -0.2,   -0.2,  999.0,   -0.2,   -0.1,   -0.1,    0.0,    0.1,    0.0,    0.0,   -0.1,   -0.5,   -0.7,   -0.7,   -0.7,   -0.5,   -0.6,   -0.7,   -0.6,   -0.4,   -0.1,    0.2,  999.0,  999.0,  999.0,  999.0,  999.0,  999.0,  999.0,  999.0,  999.0,  999.0,  999.0,  999.0,  999.0,  999.0,  999.0,  999.0,  999.0,  999.0,  999.0,  999.0,  999.0,  999.0,  999.0,  999.0,  999.0
1999/12/05 12:50,    0.2,    0.2,  999.0,    0.1,   -0.1,   -0.1,   -0.0,    0.0,   -0.1,   -0.0,   -0.1,   -0.7,   -0.7,   -0.7,   -0.7,   -0.7,   -0.6,   -0.6,   -0.5,   -0.3,  999.0,  999.0,  999.0,  999.0,  999.0,  999.0,  999.0,  999.0,  999.0,  999.0,  999.0,  999.0,  999.0,  999.0,  999.0,  999.0,  999.0,  999.0,  999.0,  999.0,  999.0,  999.0,  999.0,  999.0,  999.0,  999.0,  999.0
1999/12/05 13:00,   -0.2,    0.3,  999.0,   -0.2,   -0.2,   -0.2,   -0.1,   -0.1,   -0.0,    0.0,   -0.3,   -0.6,   -0.7,   -0.7,   -0.6,   -0.6,   -0.6,   -0.5,   -0.4,   -0.2,    0.1,  999.0,  999.0,  999.0,  999.0,  999.0,  999.0,  999.0,  999.0,  999.0,  999.0,  999.0,  999.0,  999.0,  999.0,  999.0,  999.0,  999.0,  999.0,  999.0,  999.0,  999.0,  999.0,  999.0,  999.0,  999.0,  999.0
1999/12/05 13:10,   -0.3,   -0.3,   -0.2,  999.0,   -0.4,   -0.2,   -0.3,   -0.3,  999.0,   -0.2,   -0.0,   -0.1,   -0.3,   -0.4,   -0.2,   -0.3,   -0.4,   -0.5,   -0.4,   -0.2,    0.1,  999.0,  999.0,  999.0,  999.0,  999.0,  999.0,  999.0,  999.0,  999.0,  999.0,  999.0,  999.0,  999.0,  999.0,  999.0,  999.0,  999.0,  999.0,  999.0,  999.0,  999.0,  999.0,  999.0,  999.0,  999.0,  999.0
1999/12/05 13:20,   -0.1,   -0.0,   -0.3,   -0.1,   -0.3,   -0.2,    0.0,   -0.1,   -0.1,   -0.1,    0.0,   -0.1,    0.0,   -0.3,   -0.2,   -0.3,   -0.6,   -0.6,   -0.6,   -0.1,    0.0,  999.0,  999.0,  999.0,  999.0,  999.0,  999.0,  999.0,  999.0,  999.0,  999.0,  999.0,  999.0,  999.0,  999.0,  999.0,  999.0,  999.0,  999.0,  999.0,  999.0,  999.0,  999.0,  999.0,  999.0,  999.0,  999.0
1999/12/05 13:30,   -0.1,   -0.1,    0.3,    0.2,    0.1,    0.2,    0.3,    0.3,    0.4,    0.4,    0.4,    0.2,    0.4,    0.0,   -0.1,   -0.1,   -0.3,   -0.4,   -0.4,    0.1,    0.1,  999.0,  999.0,  999.0,  999.0,  999.0,  999.0,  999.0,  999.0,  999.0,  999.0,  999.0,  999.0,  999.0,  999.0,  999.0,  999.0,  999.0,  999.0,  999.0,  999.0,  999.0,  999.0,  999.0,  999.0,  999.0,  999.0
1999/12/05 13:40,   -0.2,   -0.4,    0.1,   -0.1,    0.0,   -0.1,    0.1,    0.3,    0.4,    0.4,    0.4,    0.3,    0.3,    0.2,    0.0,   -0.0,   -0.1,   -0.2,   -0.0,    0.0,    0.4,  999.0,  999.0,  999.0,  999.0,  999.0,  999.0,  999.0,  999.0,  999.0,  999.0,  999.0,  999.0,  999.0,  999.0,  999.0,  999.0,  999.0,  999.0,  999.0,  999.0,  999.0,  999.0,  999.0,  999.0,  999.0,  999.0
1999/12/05 13:50,    0.0,    0.2,    0.3,    0.5,    0.7,    0.6,    0.8,    0.8,    0.8,    0.6,    0.5,    0.6,    0.4,    0.4,    0.5,    0.5,    0.1,    0.0,    0.4,    0.5,    0.4,    0.4,  999.0,  999.0,  999.0,  999.0,  999.0,  999.0,  999.0,  999.0,  999.0,  999.0,  999.0,  999.0,  999.0,  999.0,  999.0,  999.0,  999.0,  999.0,  999.0,  999.0,  999.0,  999.0,  999.0,  999.0,  999.0
1999/12/05 14:00,   -0.2,   -0.1,   -0.1,    0.2,    0.3,    0.5,    0.4,    0.4,    0.4,    0.5,    0.4,    0.3,    0.4,    0.2,    0.4,    0.0,   -0.2,   -0.4,   -0.3,   -0.0,    0.1,    0.3,  999.0,  999.0,  999.0,  999.0,  999.0,  999.0,  999.0,  999.0,  999.0,  999.0,  999.0,  999.0,  999.0,  999.0,  999.0,  999.0,  999.0,  999.0,  999.0,  999.0,  999.0,  999.0,  999.0,  999.0,  999.0
1999/12/05 14:10,   -0.3,   -0.5,   -0.1,   -0.1,   -0.2,   -0.3,   -0.2,   -0.1,   -0.0,   -0.0,   -0.1,    0.1,   -0.1,   -0.4,   -0.5,   -0.5,   -0.7,   -0.7,   -0.6,   -0.2,   -0.2,    0.0,    0.1,  999.0,  999.0,  999.0,  999.0,  999.0,  999.0,  999.0,  999.0,  999.0,  999.0,  999.0,  999.0,  999.0,  999.0,  999.0,  999.0,  999.0,  999.0,  999.0,  999.0,  999.0,  999.0,  999.0,  999.0
1999/12/05 14:20,   -0.2,   -0.5,   -0.6,   -0.2,   -0.0,   -0.1,   -0.0,    0.0,    0.1,    0.1,    0.0,   -0.1,   -0.2,   -0.2,   -0.5,   -0.5,   -0.6,   -0.6,   -0.3,    0.1,    0.1,    0.2,   -0.2,  999.0,  999.0,  999.0,  999.0,  999.0,  999.0,  999.0,  999.0,  999.0,  999.0,  999.0,  999.0,  999.0,  999.0,  999.0,  999.0,  999.0,  999.0,  999.0,  999.0,  999.0,  999.0,  999.0,  999.0
1999/12/05 14:30,   -0.3,   -0.3,   -0.3,   -0.3,   -0.2,    0.1,    0.1,    0.1,    0.2,    0.2,  999.0,    0.2,   -0.0,   -0.4,   -0.5,   -0.4,   -0.5,   -0.5,   -0.3,   -0.2,   -0.0,    0.2,   -0.1,  999.0,  999.0,  999.0,  999.0,  999.0,  999.0,  999.0,  999.0,  999.0,  999.0,  999.0,  999.0,  999.0,  999.0,  999.0,  999.0,  999.0,  999.0,  999.0,  999.0,  999.0,  999.0,  999.0,  999.0
1999/12/05 14:40,   -0.0,   -0.5,   -0.3,   -0.5,   -0.5,   -0.5,   -0.4,   -0.4,   -0.4,   -0.4,   -0.7,   -0.6,   -1.0,   -0.9,   -0.8,   -0.8,   -0.8,   -0.8,   -0.6,   -0.4,   -0.2,   -0.2,  999.0,  999.0,  999.0,  999.0,  999.0,  999.0,  999.0,  999.0,  999.0,  999.0,  999.0,  999.0,  999.0,  999.0,  999.0,  999.0,  999.0,  999.0,  999.0,  999.0,  999.0,  999.0,  999.0,  999.0,  999.0
1999/12/05 14:50,   -0.1,   -0.2,    0.0,  999.0,   -0.4,   -0.4,   -0.4,   -0.5,   -0.7,   -1.3,   -1.3,   -1.3,   -1.3,   -1.2,   -1.1,   -1.1,   -0.9,   -0.9,   -0.8,   -0.7,   -0.4,    0.0,  999.0,  999.0,  999.0,  999.0,  999.0,  999.0,  999.0,  999.0,  999.0,  999.0,  999.0,  999.0,  999.0,  999.0,  999.0,  999.0,  999.0,  999.0,  999.0,  999.0,  999.0,  999.0,  999.0,  999.0,  999.0
1999/12/05 15:00,   -0.4,   -0.3,   -0.4,   -0.4,   -0.5,   -0.4,   -0.5,   -0.5,   -0.8,   -1.3,   -1.3,   -1.3,   -1.2,   -1.2,   -1.2,   -1.1,   -0.9,   -0.7,   -0.4,   -0.3,   -0.0,    0.0,    0.0,  999.0,  999.0,  999.0,  999.0,  999.0,  999.0,  999.0,  999.0,  999.0,  999.0,  999.0,  999.0,  999.0,  999.0,  999.0,  999.0,  999.0,  999.0,  999.0,  999.0,  999.0,  999.0,  999.0,  999.0
1999/12/05 15:10,   -0.2,   -0.1,   -0.2,   -0.9,   -0.7,   -0.9,   -0.9,   -0.9,   -0.9,   -1.6,   -1.8,   -1.7,   -1.5,   -1.4,   -1.4,   -1.3,   -1.1,   -0.9,   -0.6,   -0.3,   -0.1,   -0.3,   -0.2,  999.0,  999.0,  999.0,  999.0,  999.0,  999.0,  999.0,  999.0,  999.0,  999.0,  999.0,  999.0,  999.0,  999.0,  999.0,  999.0,  999.0,  999.0,  999.0,  999.0,  999.0,  999.0,  999.0,  999.0
1999/12/05 15:20,    0.0,   -0.4,  999.0,   -0.3,  999.0,   -0.2,   -0.5,   -0.6,   -0.6,  999.0,   -1.5,   -1.6,   -1.5,   -1.2,   -1.3,   -1.3,   -1.3,   -1.0,   -0.6,   -0.2,    0.0,   -0.0,    0.0,   -0.2,  999.0,  999.0,  999.0,  999.0,  999.0,  999.0,  999.0,  999.0,  999.0,  999.0,  999.0,  999.0,  999.0,  999.0,  999.0,  999.0,  999.0,  999.0,  999.0,  999.0,  999.0,  999.0,  999.0
1999/12/05 15:30,   -0.3,   -0.8,   -0.7,   -1.4,   -1.2,   -0.7,   -0.7,   -0.7,  999.0,   -1.5,   -1.7,   -1.6,   -1.6,   -1.5,   -1.5,   -1.5,   -1.3,   -1.1,   -0.8,   -0.4,   -0.2,   -0.2,   -0.0,  999.0,  999.0,  999.0,  999.0,  999.0,  999.0,  999.0,  999.0,  999.0,  999.0,  999.0,  999.0,  999.0,  999.0,  999.0,  999.0,  999.0,  999.0,  999.0,  999.0,  999.0,  999.0,  999.0,  999.0
1999/12/05 15:40,   -3.0,   -2.2,   -2.7,   -2.9,   -2.0,   -1.2,   -0.7,   -0.7,   -1.9,   -2.0,   -1.9,   -1.8,   -1.8,   -1.7,   -1.6,   -1.5,   -1.4,   -1.1,   -0.8,   -0.4,   -0.2,   -0.1,   -0.0,  999.0,  999.0,  999.0,  999.0,  999.0,  999.0,  999.0,  999.0,  999.0,  999.0,  999.0,  999.0,  999.0,  999.0,  999.0,  999.0,  999.0,  999.0,  999.0,  999.0,  999.0,  999.0,  999.0,  999.0
1999/12/05 15:50,   -2.0,   -2.1,   -3.8,   -2.8,   -2.4,   -2.3,   -1.5,   -1.6,   -2.1,   -2.0,   -2.0,   -1.9,   -1.9,   -1.9,   -1.9,   -2.0,   -1.7,   -1.6,   -1.3,   -0.8,  999.0,   -0.3,   -0.2,   -0.2,  999.0,  999.0,  999.0,  999.0,  999.0,  999.0,  999.0,  999.0,  999.0,  999.0,  999.0,  999.0,  999.0,  999.0,  999.0,  999.0,  999.0,  999.0,  999.0,  999.0,  999.0,  999.0,  999.0
1999/12/05 16:00,   -4.3,   -4.6,   -3.8,   -3.0,   -2.4,   -1.6,   -0.5,   -0.6,   -1.8,   -1.8,   -1.8,   -1.8,   -1.8,   -1.7,   -1.7,   -1.5,   -1.3,   -1.2,   -1.0,   -0.6,   -0.4,   -0.2,   -0.1,  999.0,  999.0,  999.0,  999.0,  999.0,  999.0,  999.0,  999.0,  999.0,  999.0,  999.0,  999.0,  999.0,  999.0,  999.0,  999.0,  999.0,  999.0,  999.0,  999.0,  999.0,  999.0,  999.0,  999.0
1999/12/05 16:10,   -0.7,   -0.6,  999.0,  999.0,   -0.6,   -0.6,   -0.6,   -0.6,   -0.7,   -1.4,   -1.6,   -1.6,   -1.6,   -1.5,   -1.5,   -1.4,   -1.4,   -1.2,   -1.1,   -0.9,   -0.4,   -0.3,  999.0,  999.0,  999.0,  999.0,  999.0,  999.0,  999.0,  999.0,  999.0,  999.0,  999.0,  999.0,  999.0,  999.0,  999.0,  999.0,  999.0,  999.0,  999.0,  999.0,  999.0,  999.0,  999.0,  999.0,  999.0
1999/12/05 16:20,   -0.5,   -0.3,   -0.3,   -0.4,   -0.4,   -0.4,   -0.5,   -0.4,   -0.5,   -0.7,   -1.0,   -0.9,   -0.9,   -0.9,   -1.0,   -1.1,   -1.0,   -1.0,   -0.9,   -0.6,   -0.3,   -0.3,  999.0,  999.0,  999.0,  999.0,  999.0,  999.0,  999.0,  999.0,  999.0,  999.0,  999.0,  999.0,  999.0,  999.0,  999.0,  999.0,  999.0,  999.0,  999.0,  999.0,  999.0,  999.0,  999.0,  999.0,  999.0
1999/12/05 16:30,   -0.2,   -0.3,   -0.2,   -0.1,    0.0,  999.0,    0.1,    0.1,    0.1,   -0.3,   -0.6,   -0.7,   -0.8,   -0.8,   -0.8,   -0.9,   -0.9,   -0.8,   -0.8,   -0.6,   -0.3,  999.0,  999.0,  999.0,  999.0,  999.0,  999.0,  999.0,  999.0,  999.0,  999.0,  999.0,  999.0,  999.0,  999.0,  999.0,  999.0,  999.0,  999.0,  999.0,  999.0,  999.0,  999.0,  999.0,  999.0,  999.0,  999.0
1999/12/05 16:40,  999.0,  999.0,   -0.1,   -0.1,    0.0,    0.0,   -0.0,   -0.2,   -0.5,   -0.8,   -0.9,   -1.0,   -1.0,   -1.0,   -1.1,   -1.1,   -1.1,   -1.2,   -1.1,   -0.8,   -0.5,  999.0,  999.0,  999.0,  999.0,  999.0,  999.0,  999.0,  999.0,  999.0,  999.0,  999.0,  999.0,  999.0,  999.0,  999.0,  999.0,  999.0,  999.0,  999.0,  999.0,  999.0,  999.0,  999.0,  999.0,  999.0,  999.0
1999/12/05 16:50,  999.0,   -0.2,  999.0,    0.1,    0.1,    0.3,    0.4,    0.3,   -0.1,   -0.5,   -0.6,   -0.7,   -0.7,   -0.7,   -0.9,   -0.9,   -1.2,   -1.1,   -1.0,   -0.9,   -0.6,  999.0,  999.0,  999.0,  999.0,  999.0,  999.0,  999.0,  999.0,  999.0,  999.0,  999.0,  999.0,  999.0,  999.0,  999.0,  999.0,  999.0,  999.0,  999.0,  999.0,  999.0,  999.0,  999.0,  999.0,  999.0,  999.0
1999/12/05 17:00,  999.0,   -0.2,  999.0,    0.1,    0.3,    0.2,    0.4,    0.4,    0.2,   -0.1,   -0.5,   -0.7,   -0.9,   -0.7,   -0.9,   -1.1,   -1.2,   -1.2,   -1.0,   -0.7,   -0.4,  999.0,  999.0,  999.0,  999.0,  999.0,  999.0,  999.0,  999.0,  999.0,  999.0,  999.0,  999.0,  999.0,  999.0,  999.0,  999.0,  999.0,  999.0,  999.0,  999.0,  999.0,  999.0,  999.0,  999.0,  999.0,  999.0
1999/12/05 17:10,  999.0,   -0.4,   -0.4,   -0.0,    0.1,  999.0,    0.1,    0.2,   -0.3,   -0.7,   -0.8,   -0.8,   -0.8,   -0.7,   -0.8,   -0.8,   -0.9,   -1.0,   -0.6,   -0.4,   -0.1,   -0.1,  999.0,  999.0,  999.0,  999.0,  999.0,  999.0,  999.0,  999.0,  999.0,  999.0,  999.0,  999.0,  999.0,  999.0,  999.0,  999.0,  999.0,  999.0,  999.0,  999.0,  999.0,  999.0,  999.0,  999.0,  999.0
1999/12/05 17:20,   -0.3,  999.0,  999.0,  999.0,   -0.7,   -0.2,   -0.5,    0.3,    0.1,   -0.2,   -0.4,   -0.5,   -0.6,   -0.7,   -0.7,   -0.8,   -0.8,   -0.8,   -0.5,   -0.4,   -0.0,    0.1,  999.0,  999.0,  999.0,  999.0,  999.0,  999.0,  999.0,  999.0,  999.0,  999.0,  999.0,  999.0,  999.0,  999.0,  999.0,  999.0,  999.0,  999.0,  999.0,  999.0,  999.0,  999.0,  999.0,  999.0,  999.0
1999/12/05 17:30,  999.0,  999.0,   -3.5,   -2.8,   -0.3,    0.2,    0.1,   -0.2,   -0.0,   -0.3,   -0.4,   -0.3,   -0.6,   -0.5,   -0.5,   -0.4,   -0.4,   -0.4,   -0.4,   -0.3,   -0.1,    0.1,    0.1,  999.0,  999.0,  999.0,  999.0,  999.0,  999.0,  999.0,  999.0,  999.0,  999.0,  999.0,  999.0,  999.0,  999.0,  999.0,  999.0,  999.0,  999.0,  999.0,  999.0,  999.0,  999.0,  999.0,  999.0
1999/12/05 17:40,  999.0,  999.0,  999.0,  999.0,   -0.1,    0.2,    0.2,    0.2,    0.2,    0.1,   -0.0,   -0.4,   -0.5,   -0.4,   -0.5,   -0.6,   -0.5,   -0.5,   -0.5,   -0.4,   -0.3,  999.0,    0.1,  999.0,  999.0,  999.0,  999.0,  999.0,  999.0,  999.0,  999.0,  999.0,  999.0,  999.0,  999.0,  999.0,  999.0,  999.0,  999.0,  999.0,  999.0,  999.0,  999.0,  999.0,  999.0,  999.0,  999.0
1999/12/05 17:50,   -0.3,  999.0,  999.0,  999.0,   -0.2,   -0.2,   -0.0,   -0.0,    0.1,    0.1,    0.0,   -0.3,   -0.5,   -0.5,   -0.6,   -0.6,   -0.6,   -0.7,   -0.5,   -0.5,   -0.0,    0.1,    0.3,  999.0,  999.0,  999.0,  999.0,  999.0,  999.0,  999.0,  999.0,  999.0,  999.0,  999.0,  999.0,  999.0,  999.0,  999.0,  999.0,  999.0,  999.0,  999.0,  999.0,  999.0,  999.0,  999.0,  999.0
1999/12/05 18:00,   -0.3,  999.0,  999.0,  999.0,    0.0,    0.1,    0.1,    0.1,    0.2,    0.0,   -0.2,   -0.7,   -0.8,   -0.7,   -0.6,   -0.6,   -0.4,   -0.4,   -0.4,   -0.2,   -0.2,    0.1,    0.3,  999.0,  999.0,  999.0,  999.0,  999.0,  999.0,  999.0,  999.0,  999.0,  999.0,  999.0,  999.0,  999.0,  999.0,  999.0,  999.0,  999.0,  999.0,  999.0,  999.0,  999.0,  999.0,  999.0,  999.0
1999/12/05 18:10,   -0.3,   -0.4,   -0.2,   -0.1,   -0.2,   -0.1,    0.0,    0.0,    0.0,   -0.1,   -0.1,   -0.6,   -0.8,   -0.5,   -0.7,   -0.8,   -1.0,   -0.9,   -0.8,   -0.3,   -0.4,   -0.2,    0.2,  999.0,  999.0,  999.0,  999.0,  999.0,  999.0,  999.0,  999.0,  999.0,  999.0,  999.0,  999.0,  999.0,  999.0,  999.0,  999.0,  999.0,  999.0,  999.0,  999.0,  999.0,  999.0,  999.0,  999.0
1999/12/05 18:20,   -4.5,   -4.2,   -4.2,   -3.2,   -1.1,   -1.2,   -0.9,   -0.9,   -0.8,   -0.7,   -0.8,   -0.9,   -1.0,   -1.1,   -1.1,   -1.2,   -1.1,   -0.9,   -0.8,   -0.5,   -0.3,   -0.1,    0.1,    0.2,  999.0,  999.0,  999.0,  999.0,  999.0,  999.0,  999.0,  999.0,  999.0,  999.0,  999.0,  999.0,  999.0,  999.0,  999.0,  999.0,  999.0,  999.0,  999.0,  999.0,  999.0,  999.0,  999.0
1999/12/05 18:30,   -1.7,   -3.8,   -4.8,   -3.5,   -1.5,   -1.3,   -1.2,   -1.0,   -0.9,   -0.7,   -0.6,   -0.6,   -0.7,   -0.7,   -0.9,   -1.0,   -0.9,   -1.1,   -0.7,   -0.3,   -0.5,   -0.4,   -0.3,    0.1,  999.0,  999.0,  999.0,  999.0,  999.0,  999.0,  999.0,  999.0,  999.0,  999.0,  999.0,  999.0,  999.0,  999.0,  999.0,  999.0,  999.0,  999.0,  999.0,  999.0,  999.0,  999.0,  999.0
1999/12/05 18:40,   -0.2,   -2.9,  999.0,   -1.9,   -0.2,   -0.3,   -0.1,   -0.0,    0.2,    0.1,    0.1,   -0.3,   -0.1,   -0.5,   -0.7,   -0.8,   -0.8,   -1.0,   -0.5,   -0.6,   -0.5,   -0.4,   -0.2,   -0.1,  999.0,  999.0,  999.0,  999.0,  999.0,  999.0,  999.0,  999.0,  999.0,  999.0,  999.0,  999.0,  999.0,  999.0,  999.0,  999.0,  999.0,  999.0,  999.0,  999.0,  999.0,  999.0,  999.0
1999/12/05 18:50,   -2.5,  999.0,   -2.1,   -2.5,   -0.7,   -0.5,   -0.1,    0.0,    0.2,    0.2,    0.2,    0.1,   -0.1,   -0.3,   -0.5,   -0.6,   -0.4,   -0.4,   -0.1,   -0.5,   -0.2,   -0.1,   -0.2,   -0.0,  999.0,  999.0,  999.0,  999.0,  999.0,  999.0,  999.0,  999.0,  999.0,  999.0,  999.0,  999.0,  999.0,  999.0,  999.0,  999.0,  999.0,  999.0,  999.0,  999.0,  999.0,  999.0,  999.0
1999/12/05 19:00,  999.0,   -0.3,   -0.4,  999.0,   -1.5,   -0.3,   -0.2,   -0.2,   -0.2,   -0.2,   -0.1,   -0.4,   -0.3,   -0.9,   -0.7,   -0.9,   -1.0,   -0.5,  999.0,   -0.1,   -0.1,   -0.3,   -0.2,    0.1,  999.0,  999.0,  999.0,  999.0,  999.0,  999.0,  999.0,  999.0,  999.0,  999.0,  999.0,  999.0,  999.0,  999.0,  999.0,  999.0,  999.0,  999.0,  999.0,  999.0,  999.0,  999.0,  999.0
1999/12/05 19:10,  999.0,   -5.0,   -2.4,  999.0,   -1.9,   -1.8,   -1.3,   -1.3,   -1.2,   -1.1,   -1.2,   -1.1,   -1.0,   -0.9,   -1.2,   -1.2,   -1.1,   -0.9,   -1.0,   -1.0,   -0.6,   -0.6,   -0.4,    0.1,    0.1,  999.0,  999.0,  999.0,  999.0,  999.0,  999.0,  999.0,  999.0,  999.0,  999.0,  999.0,  999.0,  999.0,  999.0,  999.0,  999.0,  999.0,  999.0,  999.0,  999.0,  999.0,  999.0
1999/12/05 19:20,   -5.1,   -4.5,   -5.0,   -3.9,   -2.4,   -2.1,   -2.1,   -1.9,   -1.6,   -1.3,   -1.4,   -1.5,   -1.5,   -1.7,   -1.7,   -1.6,   -1.5,   -1.2,   -1.0,   -0.9,   -0.6,   -0.6,   -0.2,    0.2,    0.2,  999.0,  999.0,  999.0,  999.0,  999.0,  999.0,  999.0,  999.0,  999.0,  999.0,  999.0,  999.0,  999.0,  999.0,  999.0,  999.0,  999.0,  999.0,  999.0,  999.0,  999.0,  999.0
1999/12/05 19:30,   -5.3,   -5.1,   -4.9,   -4.5,   -2.0,  999.0,   -1.8,   -1.6,   -1.5,   -1.5,   -1.4,   -1.4,   -1.2,   -1.3,   -1.1,   -1.0,   -1.0,   -0.9,   -0.7,   -0.6,   -0.5,   -0.5,   -0.3,   -0.0,    0.1,  999.0,  999.0,  999.0,  999.0,  999.0,  999.0,  999.0,  999.0,  999.0,  999.0,  999.0,  999.0,  999.0,  999.0,  999.0,  999.0,  999.0,  999.0,  999.0,  999.0,  999.0,  999.0
1999/12/05 19:40,   -7.5,   -6.5,   -6.7,   -5.7,  999.0,  999.0,   -1.2,   -1.1,   -1.2,   -1.4,   -1.4,   -0.7,   -0.8,   -0.9,   -1.0,   -0.9,   -0.6,   -0.5,   -0.3,   -0.2,   -0.1,   -0.1,   -0.1,    0.1,    0.0,    0.2,  999.0,  999.0,  999.0,  999.0,  999.0,  999.0,  999.0,  999.0,  999.0,  999.0,  999.0,  999.0,  999.0,  999.0,  999.0,  999.0,  999.0,  999.0,  999.0,  999.0,  999.0
1999/12/05 19:50,   -3.9,   -3.4,   -3.8,   -3.5,   -2.3,   -1.2,   -1.2,   -1.3,   -1.1,   -1.1,   -0.9,   -1.0,   -1.2,   -1.2,   -1.2,   -1.0,   -0.9,   -0.8,   -0.5,   -0.5,   -0.0,   -0.1,   -0.3,    0.2,    0.2,    0.3,  999.0,  999.0,  999.0,  999.0,  999.0,  999.0,  999.0,  999.0,  999.0,  999.0,  999.0,   -0.2,   -0.3,   -0.1,  999.0,  999.0,  999.0,  999.0,  999.0,  999.0,  999.0
1999/12/05 20:00,   -4.9,   -4.7,   -4.6,   -4.5,   -3.7,   -1.9,   -1.6,   -1.4,   -1.4,   -1.3,   -1.4,   -1.4,   -1.4,   -1.3,   -1.3,   -1.3,   -1.0,   -0.8,   -0.6,   -0.6,   -0.7,   -0.7,   -0.5,   -0.4,    0.2,    0.1,  999.0,  999.0,  999.0,  999.0,  999.0,  999.0,  999.0,  999.0,  999.0,  999.0,   -0.4,   -0.2,   -0.7,  999.0,  999.0,  999.0,  999.0,  999.0,  999.0,  999.0,  999.0
1999/12/05 20:10,   -4.7,   -4.8,   -4.7,   -4.6,   -3.9,   -1.7,   -1.6,   -1.4,   -1.3,   -1.3,   -1.3,   -1.3,   -1.4,   -1.3,   -1.1,   -0.9,   -0.7,   -0.7,   -0.6,   -0.3,    0.1,   -0.4,   -0.3,   -0.4,    0.0,    0.0,  999.0,  999.0,  999.0,  999.0,  999.0,  999.0,  999.0,  999.0,  999.0,  999.0,   -0.3,   -0.3,   -0.3,   -0.1,  999.0,  999.0,  999.0,  999.0,  999.0,  999.0,  999.0
1999/12/05 20:20,   -4.6,   -4.5,   -4.6,   -4.7,   -4.4,   -3.0,   -1.8,   -1.5,   -1.3,   -1.4,   -1.4,   -1.2,   -1.3,   -1.2,   -1.0,   -0.9,   -0.6,   -0.6,   -0.5,    0.0,   -0.2,   -0.0,    0.0,    0.0,    0.0,    0.1,  999.0,  999.0,  999.0,  999.0,  999.0,  999.0,  999.0,  999.0,  999.0,  999.0,   -0.5,   -0.5,   -0.3,   -0.1,  999.0,  999.0,  999.0,  999.0,  999.0,  999.0,  999.0
1999/12/05 20:30,   -4.5,   -4.5,   -4.6,   -4.6,   -3.5,   -2.4,   -1.6,   -1.7,   -1.7,   -1.6,   -1.7,   -1.7,   -1.7,   -1.6,   -1.3,   -1.2,   -1.1,   -1.0,   -0.9,   -0.8,   -0.5,   -0.6,   -0.4,   -0.6,   -0.1,    0.0,    0.0,  999.0,  999.0,  999.0,  999.0,  999.0,  999.0,  999.0,  999.0,   -0.4,   -0.5,   -0.6,   -0.6,   -0.5,   -0.5,  999.0,  999.0,  999.0,  999.0,  999.0,  999.0
1999/12/05 20:40,   -5.1,   -5.5,   -5.6,   -5.4,   -3.0,   -2.4,   -2.1,   -2.0,   -2.0,   -2.0,   -2.0,   -2.1,   -2.1,   -2.1,   -1.9,   -1.5,   -1.2,   -1.0,   -0.8,   -0.6,   -0.6,   -0.2,   -0.2,   -0.3,   -0.1,   -0.1,   -0.2,  999.0,  999.0,  999.0,  999.0,  999.0,  999.0,  999.0,  999.0,   -0.8,   -0.7,   -0.6,   -0.6,   -0.5,   -0.4,   -0.4,   -0.3,   -0.5,   -0.4,   -0.0,  999.0
1999/12/05 20:50,   -5.0,   -4.5,   -4.8,   -5.0,   -3.1,   -2.3,   -1.9,   -1.8,   -1.7,   -1.6,   -1.6,   -1.6,   -1.6,   -1.3,   -1.2,   -1.1,   -1.0,   -1.0,   -0.7,   -0.6,   -0.4,   -0.3,   -0.2,   -0.5,   -0.1,   -0.2,    0.5,  999.0,  999.0,  999.0,  999.0,  999.0,  999.0,  999.0,  999.0,  999.0,  999.0,   -0.5,  999.0,  999.0,  999.0,  999.0,  999.0,  999.0,  999.0,  999.0,  999.0
1999/12/05 21:00,   -4.8,   -5.0,   -4.7,   -4.7,   -3.5,   -2.0,   -1.2,   -1.0,   -1.0,   -1.0,   -1.0,   -1.0,   -1.0,   -1.0,   -0.9,   -0.8,   -0.8,   -0.6,   -0.5,   -0.2,    0.1,   -0.0,   -0.1,   -0.2,   -0.2,   -0.2,    0.3,  999.0,  999.0,  999.0,  999.0,  999.0,  999.0,  999.0,  999.0,  999.0,   -0.6,   -0.5,   -0.6,   -0.6,   -0.3,  999.0,  999.0,  999.0,   -0.5,  999.0,  999.0
1999/12/05 21:10,  999.0,   -4.5,   -4.3,   -3.7,   -3.8,   -2.1,   -1.3,   -1.2,   -1.3,   -1.3,   -1.3,   -1.2,   -1.1,   -1.3,   -1.3,   -1.2,   -0.8,   -0.7,   -0.5,   -0.4,   -0.2,   -0.2,   -0.2,   -0.5,   -0.3,   -0.2,    0.2,   -0.1,  999.0,  999.0,  999.0,  999.0,  999.0,  999.0,  999.0,  999.0,   -0.4,   -0.6,   -0.5,  999.0,  999.0,  999.0,  999.0,  999.0,  999.0,  999.0,  999.0
1999/12/05 21:20,   -4.6,   -4.5,   -4.1,   -4.6,   -4.9,   -2.7,   -1.2,  999.0,   -1.6,   -1.5,   -1.4,   -1.7,   -1.5,   -1.5,   -1.3,   -1.3,   -1.3,   -1.0,   -0.8,   -0.9,   -0.3,   -0.1,   -0.0,   -0.2,   -0.1,   -0.3,   -0.2,   -0.3,  999.0,  999.0,  999.0,  999.0,  999.0,  999.0,  999.0,  999.0,  999.0,  999.0,  999.0,   -0.5,  999.0,  999.0,  999.0,  999.0,  999.0,  999.0,  999.0
1999/12/05 21:30,   -6.1,   -6.0,   -4.4,   -4.4,   -4.6,   -2.9,   -1.5,   -1.2,   -1.3,   -1.3,   -1.4,   -1.6,   -1.5,   -1.5,   -1.6,   -1.4,   -1.3,   -1.3,   -1.2,   -1.0,   -0.7,   -0.3,    0.2,    0.1,    0.1,   -0.1,  999.0,  999.0,  999.0,  999.0,  999.0,  999.0,  999.0,  999.0,  999.0,  999.0,  999.0,  999.0,   -0.3,  999.0,   -0.5,   -0.8,   -0.6,   -0.5,  999.0,  999.0,  999.0
1999/12/05 21:40,   -2.5,   -2.5,   -2.4,   -2.1,   -2.1,   -2.1,   -1.4,   -1.3,   -1.4,   -1.4,   -1.3,   -1.4,   -1.3,   -1.3,   -1.3,   -1.3,   -1.2,   -0.9,   -0.9,   -0.7,   -0.7,   -0.5,   -0.1,   -0.1,   -0.2,   -0.2,  999.0,  999.0,  999.0,  999.0,  999.0,  999.0,  999.0,  999.0,  999.0,  999.0,  999.0,  999.0,    0.0,   -0.2,   -0.3,   -0.6,   -0.4,   -0.5,   -0.5,  999.0,  999.0
1999/12/05 21:50,   -4.2,   -4.2,   -3.4,   -4.4,   -4.4,  999.0,   -1.3,   -1.2,   -1.3,   -1.3,   -1.5,   -1.6,   -1.6,   -1.7,   -1.8,   -1.6,   -1.3,   -1.0,   -1.0,   -0.4,   -0.6,   -0.7,   -0.5,   -0.2,    0.1,   -0.3,   -0.4,  999.0,  999.0,  999.0,  999.0,  999.0,  999.0,  999.0,  999.0,  999.0,  999.0,  999.0,  999.0,   -0.3,   -0.6,   -0.5,   -0.5,  999.0,  999.0,  999.0,  999.0
1999/12/05 22:00,   -4.7,   -5.0,   -4.8,   -4.8,   -4.6,  999.0,   -1.0,   -0.9,   -1.1,   -0.6,   -0.5,   -0.3,   -0.4,   -0.4,   -0.5,   -0.6,   -0.2,   -0.3,   -0.1,    0.0,    0.2,    0.4,    0.4,    0.2,    0.3,  999.0,  999.0,  999.0,  999.0,  999.0,  999.0,  999.0,  999.0,  999.0,  999.0,  999.0,  999.0,  999.0,  999.0,   -0.8,   -0.8,   -0.6,   -0.5,   -0.4,  999.0,  999.0,  999.0
1999/12/05 22:10,   -3.2,   -3.6,   -2.6,   -1.8,   -2.6,  999.0,   -1.4,   -1.4,   -1.4,   -1.3,   -1.5,   -1.6,   -1.5,   -1.6,   -1.6,   -1.6,   -1.5,   -1.1,   -1.0,   -1.0,   -0.8,   -0.5,   -0.4,   -0.2,   -0.0,  999.0,  999.0,  999.0,  999.0,  999.0,  999.0,  999.0,  999.0,  999.0,  999.0,  999.0,  999.0,  999.0,  999.0,   -0.8,   -0.8,   -0.8,   -0.6,   -0.6,  999.0,  999.0,  999.0
1999/12/05 22:20,   -3.8,   -3.9,   -3.9,   -3.7,   -3.8,  999.0,   -1.1,   -0.9,   -1.0,   -1.2,   -1.6,   -1.2,   -1.2,   -1.2,   -1.2,   -1.1,   -1.0,   -1.0,   -1.0,   -0.7,   -1.5,   -0.5,   -0.6,   -0.1,    0.1,    0.0,  999.0,  999.0,  999.0,  999.0,  999.0,  999.0,  999.0,  999.0,  999.0,  999.0,  999.0,  999.0,  999.0,  999.0,   -0.7,   -0.7,   -0.6,   -0.6,  999.0,  999.0,  999.0
1999/12/05 22:30,   -3.9,   -3.9,   -3.5,   -4.1,   -3.6,   -1.5,   -0.6,   -0.4,   -0.3,   -0.2,   -0.7,   -0.4,   -0.9,   -0.7,   -0.3,   -0.4,   -0.6,   -0.3,   -0.2,   -0.2,   -0.2,   -0.5,   -0.2,    0.1,    0.1,  999.0,  999.0,  999.0,  999.0,  999.0,  999.0,  999.0,  999.0,  999.0,  999.0,  999.0,  999.0,  999.0,  999.0,   -1.0,   -0.9,   -0.7,   -0.6,   -0.5,   -0.5,  999.0,  999.0
1999/12/05 22:40,   -2.4,   -1.6,   -2.0,  999.0,   -0.6,   -0.4,   -0.1,   -0.1,    0.0,   -0.0,   -0.1,   -0.2,   -0.7,   -1.0,   -0.9,   -0.8,   -0.8,   -0.7,   -0.5,  999.0,   -0.1,   -0.1,   -0.3,   -0.2,   -0.0,  999.0,  999.0,  999.0,  999.0,  999.0,  999.0,  999.0,  999.0,  999.0,  999.0,  999.0,  999.0,  999.0,  999.0,   -0.7,   -0.7,   -0.9,   -0.9,   -0.8,   -0.5,   -0.3,  999.0
1999/12/05 22:50,   -3.3,  999.0,   -1.8,   -1.5,   -1.3,    0.0,  999.0,    0.0,   -0.0,   -0.2,   -0.9,   -0.8,   -0.8,   -0.7,   -0.7,   -0.6,   -0.6,   -0.7,   -0.5,   -0.3,   -0.0,    0.0,   -0.1,   -0.1,   -0.1,  999.0,  999.0,  999.0,  999.0,  999.0,  999.0,  999.0,  999.0,  999.0,  999.0,  999.0,  999.0,  999.0,  999.0,   -0.8,   -0.7,   -0.8,   -0.7,   -0.8,   -0.6,  999.0,  999.0
1999/12/05 23:00,  999.0,   -3.0,   -1.6,   -1.4,   -0.9,  999.0,   -0.4,   -0.4,   -0.3,   -0.4,   -0.7,   -0.7,   -0.6,   -0.4,   -0.3,   -0.1,   -0.7,   -0.4,   -0.4,   -0.4,   -0.2,   -0.3,   -0.3,   -0.1,    0.2,  999.0,  999.0,  999.0,  999.0,  999.0,  999.0,  999.0,  999.0,  999.0,  999.0,  999.0,  999.0,   -0.8,   -0.7,   -0.8,   -0.8,   -0.7,   -0.8,   -0.7,   -0.6,  999.0,  999.0
1999/12/05 23:10,  999.0,    0.3,    0.2,    0.1,    0.1,    0.2,    0.3,    0.2,    0.1,    0.1,    0.0,   -0.0,   -0.1,   -0.1,   -0.4,   -0.2,   -0.6,   -0.6,   -0.6,   -0.3,   -0.2,   -0.2,   -0.3,   -0.1,  999.0,  999.0,  999.0,  999.0,  999.0,  999.0,  999.0,  999.0,  999.0,  999.0,  999.0,  999.0,  999.0,   -0.6,   -0.7,   -0.7,   -0.8,   -0.8,   -0.7,   -0.6,   -0.6,   -0.5,  999.0
1999/12/05 23:20,    0.5,    0.1,    0.0,    0.0,    0.1,    0.1,    0.2,    0.2,    0.1,    0.1,    0.1,    0.1,   -0.1,   -0.2,   -0.1,   -0.0,   -0.2,   -0.5,   -0.3,   -0.4,   -0.5,   -0.3,   -0.1,   -0.1,  999.0,  999.0,  999.0,  999.0,  999.0,  999.0,  999.0,  999.0,  999.0,  999.0,  999.0,   -0.5,   -0.6,   -0.7,   -0.7,   -0.7,   -0.7,   -0.7,   -0.4,   -0.5,   -0.4,   -0.4,  999.0
1999/12/05 23:30,    0.1,    0.0,    0.0,   -0.1,   -0.0,   -0.0,   -0.1,    0.0,   -0.0,   -0.1,   -0.4,   -0.3,   -0.4,   -0.4,   -0.6,   -0.8,   -0.8,   -1.0,   -0.9,   -0.8,   -0.8,   -0.6,   -0.4,   -0.4,  999.0,  999.0,  999.0,  999.0,  999.0,  999.0,  999.0,  999.0,  999.0,  999.0,  999.0,  999.0,   -0.7,   -0.9,   -1.0,   -0.9,   -1.0,   -0.8,   -0.7,  999.0,   -0.6,  999.0,  999.0
1999/12/05 23:40,  999.0,  999.0,   -0.0,   -0.0,    0.0,    0.1,    0.1,    0.3,    0.4,    0.3,    0.3,    0.2,   -0.1,   -0.0,   -0.1,   -0.1,  999.0,   -0.6,   -0.3,   -0.4,   -0.3,   -0.1,    0.1,    0.3,  999.0,  999.0,  999.0,  999.0,  999.0,  999.0,  999.0,  999.0,  999.0,  999.0,  999.0,  999.0,   -0.5,   -0.5,   -0.5,   -0.5,   -0.6,   -0.4,   -0.5,   -0.7,  999.0,   -0.5,  999.0
1999/12/05 23:50,   -0.1,   -0.3,   -0.2,   -0.3,   -0.2,   -0.2,   -0.1,   -0.0,    0.1,    0.0,   -0.0,   -0.0,    0.0,    0.0,   -0.0,  999.0,  999.0,    0.1,  999.0,   -0.2,    0.1,    0.2,    0.3,  999.0,  999.0,  999.0,  999.0,  999.0,  999.0,  999.0,  999.0,  999.0,  999.0,  999.0,  999.0,  999.0,   -0.1,   -0.1,   -0.3,   -0.2,   -0.2,   -0.3,   -0.3,   -0.2,   -0.4,  999.0,  999.0
